North Bend, OR

1:02 AM PDT on April 29, 2017 (GMT -0700)
North Bend Municipal

Weather History for KOTH - May, 2014

Change the Weather History Date:

Wednesday, May 21, 2014

  Actual Average Record
Temperature  
Mean Temperature 57 °F 54 °F  
Max Temperature 63 °F 59 °F 87 °F (1914)
Min Temperature 50 °F 48 °F 35 °F (1909)
Degree Days  
Heating Degree Days 8 11  
Month to date heating degree days 170 266  
Since 1 July heating degree days 3803 4452  
Cooling Degree Days 0 0  
Month to date cooling degree days 4 0  
Year to date cooling degree days 12 0  
Growing Degree Days 6 (Base 50)    
Moisture  
Dew Point 51 °F    
Average Humidity 82    
Maximum Humidity 100    
Minimum Humidity 67    
Precipitation  
Precipitation 0.00 in 0.11 in 1.24 in (1990)
Month to date precipitation 1.72 2.34  
Year to date precipitation 21.34 33.12  
Sea Level Pressure  
Sea Level Pressure 30.16 in    
Wind  
Wind Speed 14 mph (North)    
Max Wind Speed 27 mph    
Max Gust Speed 31 mph    
Visibility 10 miles    
Events      
T = Trace of Precipitation, MM = Missing Value Source: NWS Daily Summary

Daily Weather History Graph

Daily Weather History Graph

Search for Another Location

Airport or City:

Trip Planner

Search our weather history database for the weather conditions in past years. The results will help you decide how hot, cold, wet, or windy it might be!

Date:

Astronomy

May. 21, 2014 Rise Set
Actual Time 5:46 AM PDT 8:41 PM PDT
Civil Twilight 5:13 AM PDT 9:14 PM PDT
Nautical Twilight 4:30 AM PDT 9:57 PM PDT
Astronomical Twilight 3:40 AM PDT 10:48 PM PDT
Moon 1:46 AM PDT (5/21) 1:16 PM PDT (5/21)
Length of Visible Light 16h 01m
Length of Day
14h 54m
Waning Gibbous, 47% of the Moon is Illuminated
May 21
Waning Gibbous
May 28
New
Jun 5
First Quarter
Jun 12
Full
Jun 19
Last Quarter

Hourly Weather History & Observations

Time (PDT) Temp. Dew Point Humidity Pressure Visibility Wind Dir Wind Speed Gust Speed Precip Events Conditions
12:15 AM 55.4 °F 51.8 °F 88% 30.19 in 10.0 mi North 12.7 mph 18.4 mph N/A   Overcast
12:35 AM 55.4 °F 51.8 °F 88% 30.19 in 10.0 mi North 11.5 mph - N/A   Overcast
12:55 AM 55.4 °F 51.8 °F 88% 30.19 in 10.0 mi North 11.5 mph - N/A   Overcast
1:15 AM 55.4 °F 50.0 °F 82% 30.19 in 10.0 mi North 15.0 mph - N/A   Overcast
1:35 AM 55.4 °F 48.2 °F 77% 30.19 in 10.0 mi North 13.8 mph 24.2 mph N/A   Overcast
2:15 AM 55.4 °F 48.2 °F 77% 30.18 in 10.0 mi NNE 11.5 mph - N/A   Mostly Cloudy
2:35 AM 53.6 °F 48.2 °F 82% 30.18 in 10.0 mi NNE 9.2 mph - N/A   Partly Cloudy
2:55 AM 53.6 °F 48.2 °F 82% 30.17 in 10.0 mi North 9.2 mph - N/A   Mostly Cloudy
3:15 AM 53.6 °F 48.2 °F 82% 30.17 in 10.0 mi North 9.2 mph 16.1 mph N/A   Mostly Cloudy
3:35 AM 53.6 °F 48.2 °F 82% 30.17 in 10.0 mi North 10.4 mph - N/A   Scattered Clouds
3:55 AM 53.6 °F 48.2 °F 82% 30.17 in 10.0 mi NNE 8.1 mph - N/A   Clear
4:15 AM 53.6 °F 48.2 °F 82% 30.17 in 10.0 mi NNE 8.1 mph - N/A   Clear
4:35 AM 51.8 °F 48.2 °F 88% 30.17 in 10.0 mi NNE 4.6 mph - N/A   Clear
4:55 AM 51.8 °F 48.2 °F 88% 30.17 in 10.0 mi NE 4.6 mph - N/A   Clear
5:15 AM 51.8 °F 48.2 °F 88% 30.17 in 10.0 mi NNE 3.5 mph - N/A   Clear
5:35 AM 51.8 °F 48.2 °F 88% 30.18 in 10.0 mi NNE 4.6 mph - N/A   Clear
5:55 AM 51.8 °F 48.2 °F 88% 30.17 in 10.0 mi NE 5.8 mph - N/A   Clear
6:15 AM 51.8 °F 48.2 °F 88% 30.17 in 10.0 mi ENE 5.8 mph - N/A   Clear
6:35 AM 51.8 °F 48.2 °F 88% 30.18 in 10.0 mi NE 4.6 mph - N/A   Clear
6:55 AM 51.8 °F 48.2 °F 88% 30.17 in 10.0 mi Calm Calm - N/A   Clear
8:35 AM 55.4 °F 50.0 °F 82% 30.18 in 10.0 mi NNE 5.8 mph - N/A   Clear
8:55 AM 57.2 °F 50.0 °F 77% 30.18 in 10.0 mi North 4.6 mph - N/A   Clear
9:15 AM 57.2 °F 51.8 °F 82% 30.18 in 10.0 mi North 11.5 mph - N/A   Partly Cloudy
9:35 AM 59.0 °F 50.0 °F 72% 30.18 in 10.0 mi North 12.7 mph - N/A   Clear
9:55 AM 59.0 °F 50.0 °F 72% 30.18 in 10.0 mi North 16.1 mph 20.7 mph N/A   Clear
10:15 AM 60.8 °F 50.0 °F 68% 30.19 in 10.0 mi North 18.4 mph 21.9 mph N/A   Clear
10:35 AM 60.8 °F 50.0 °F 68% 30.19 in 10.0 mi North 19.6 mph - N/A   Clear
11:15 AM 60.8 °F 50.0 °F 68% 30.18 in 10.0 mi NNW 17.3 mph 21.9 mph N/A   Partly Cloudy
11:35 AM 60.8 °F 50.0 °F 68% 30.17 in 10.0 mi North 17.3 mph - N/A   Clear
11:55 AM 62.6 °F 51.8 °F 68% 30.17 in 10.0 mi North 12.7 mph - N/A   Clear
12:15 PM 62.6 °F 51.8 °F 68% 30.16 in 10.0 mi North 17.3 mph - N/A   Clear
12:35 PM 62.6 °F 51.8 °F 68% 30.15 in 10.0 mi North 15.0 mph 19.6 mph N/A   Clear
12:55 PM 60.8 °F 51.8 °F 72% 30.15 in 10.0 mi North 20.7 mph - N/A   Clear
1:15 PM 60.8 °F 51.8 °F 72% 30.16 in 10.0 mi North 20.7 mph - N/A   Clear
1:35 PM 60.8 °F 51.8 °F 72% 30.16 in 10.0 mi North 23.0 mph 28.8 mph N/A   Clear
1:55 PM 60.8 °F 51.8 °F 72% 30.15 in 10.0 mi North 24.2 mph 31.1 mph N/A   Clear
2:15 PM 60.8 °F 51.8 °F 72% 30.15 in 10.0 mi North 25.3 mph 32.2 mph N/A   Clear
2:35 PM 60.8 °F 51.8 °F 72% 30.15 in 10.0 mi North 25.3 mph 32.2 mph N/A   Clear
2:55 PM 60.8 °F 53.6 °F 77% 30.16 in 10.0 mi North 26.5 mph 29.9 mph N/A   Clear
3:15 PM 60.8 °F 53.6 °F 77% 30.16 in 10.0 mi North 23.0 mph 31.1 mph N/A   Clear
3:35 PM 60.8 °F 53.6 °F 77% 30.15 in 10.0 mi North 23.0 mph 31.1 mph N/A   Clear
3:55 PM 60.8 °F 51.8 °F 72% 30.15 in 10.0 mi North 26.5 mph 31.1 mph N/A   Clear
4:15 PM 60.8 °F 51.8 °F 72% 30.15 in 10.0 mi North 25.3 mph 32.2 mph N/A   Clear
4:35 PM 60.8 °F 53.6 °F 77% 30.14 in 10.0 mi North 25.3 mph - N/A   Clear
4:55 PM 60.8 °F 51.8 °F 72% 30.14 in 10.0 mi North 23.0 mph 31.1 mph N/A   Clear
5:15 PM 60.8 °F 51.8 °F 72% 30.14 in 10.0 mi North 27.6 mph 32.2 mph N/A   Clear
5:35 PM 60.8 °F 53.6 °F 77% 30.13 in 10.0 mi North 24.2 mph 32.2 mph N/A   Clear
5:55 PM 60.8 °F 53.6 °F 77% 30.12 in 10.0 mi North 20.7 mph - N/A   Clear
6:15 PM 60.8 °F 53.6 °F 77% 30.12 in 10.0 mi North 24.2 mph 29.9 mph N/A   Clear
6:35 PM 59.0 °F 53.6 °F 82% 30.11 in 10.0 mi North 24.2 mph 33.4 mph N/A   Clear
6:55 PM 59.0 °F 53.6 °F 82% 30.11 in 10.0 mi North 24.2 mph 28.8 mph N/A   Clear
7:15 PM 57.2 °F 53.6 °F 88% 30.12 in 10.0 mi North 24.2 mph 34.5 mph N/A   Clear
7:35 PM 57.2 °F 53.6 °F 88% 30.11 in 10.0 mi North 25.3 mph 28.8 mph N/A   Partly Cloudy
7:55 PM 57.2 °F 53.6 °F 88% 30.12 in 10.0 mi North 20.7 mph 28.8 mph N/A   Clear
8:15 PM 55.4 °F 53.6 °F 94% 30.12 in 10.0 mi North 19.6 mph 28.8 mph N/A   Mostly Cloudy
8:35 PM 55.4 °F 53.6 °F 94% 30.13 in 10.0 mi North 18.4 mph 27.6 mph N/A   Mostly Cloudy
8:55 PM 55.4 °F 53.6 °F 94% 30.13 in 10.0 mi North 18.4 mph 28.8 mph N/A   Mostly Cloudy
9:15 PM 55.4 °F 53.6 °F 94% 30.13 in 10.0 mi North 18.4 mph 23.0 mph N/A   Overcast
9:35 PM 55.4 °F 53.6 °F 94% 30.13 in 10.0 mi North 18.4 mph 23.0 mph N/A   Overcast
9:55 PM 55.4 °F 53.6 °F 94% 30.13 in 10.0 mi NNE 13.8 mph - N/A   Mostly Cloudy
10:15 PM 55.4 °F 53.6 °F 94% 30.13 in 10.0 mi NNE 8.1 mph - N/A   Scattered Clouds
10:35 PM 55.4 °F 51.8 °F 88% 30.13 in 10.0 mi North 5.8 mph - N/A   Scattered Clouds
10:55 PM 55.4 °F 53.6 °F 94% 30.13 in 10.0 mi North 10.4 mph - N/A   Partly Cloudy
11:15 PM 53.6 °F 53.6 °F 100% 30.13 in 10.0 mi North 10.4 mph - N/A   Clear
11:35 PM 53.6 °F 53.6 °F 100% 30.13 in 10.0 mi NNE 9.2 mph - N/A   Clear
11:55 PM 53.6 °F 53.6 °F 100% 30.13 in 10.0 mi NNE 9.2 mph - N/A   Clear